This is the latest recevied weather packets stored in our database for station/object OE3APM-13. If no packets are shown the sender has not sent any weather packets the latest 10 day(s).
| Time | Temp. | Humidity | Pressure | Rain* | Wind** | Luminosity | Snow |
|---|---|---|---|---|---|---|---|
| 1777505402 | -0.56° C | 64% | 1028.9 hPa | 0 mm | - | 0 W/m² | - |
| 1777505103 | -0.56° C | 61% | 1028.9 hPa | 0 mm | - | 0 W/m² | - |
| 1777504802 | -0.56° C | 60% | 1028.9 hPa | 0 mm | - | 0 W/m² | - |
| 1777504503 | 0° C | 60% | 1029 hPa | 0 mm | - | 0 W/m² | - |
| 1777504203 | 0° C | 59% | 1029 hPa | 0 mm | - | 0 W/m² | - |
| 1777503902 | 0° C | 59% | 1029 hPa | 0 mm | - | 0 W/m² | - |
| 1777503600 | 0.56° C | 58% | 1028.9 hPa | 0 mm | - | 0 W/m² | - |
| 1777503301 | 0.56° C | 57% | 1028.9 hPa | 0 mm | - | 0 W/m² | - |
| 1777502699 | 1.11° C | 53% | 1028.8 hPa | 0 mm | - | 0 W/m² | - |
| 1777502399 | 1.11° C | 54% | 1028.9 hPa | 0 mm | - | 0 W/m² | - |
| 1777502098 | 1.67° C | 56% | 1028.8 hPa | 0 mm | - | 0 W/m² | - |
| 1777501797 | 1.67° C | 57% | 1028.7 hPa | 0 mm | - | 0 W/m² | - |
| 1777501493 | 2.22° C | 54% | 1028.6 hPa | 0 mm | - | 0 W/m² | - |
| 1777501193 | 2.22° C | 51% | 1028.6 hPa | 0 mm | - | 0 W/m² | - |
| 1777500893 | 2.22° C | 51% | 1028.7 hPa | 0 mm | - | 0 W/m² | - |
| 1777500589 | 2.78° C | 51% | 1028.6 hPa | 0 mm | - | 0 W/m² | - |
| 1777500285 | 2.78° C | 50% | 1028.6 hPa | 0 mm | - | 0 W/m² | - |
| 1777499983 | 2.78° C | 51% | 1028.5 hPa | 0 mm | - | 0 W/m² | - |
| 1777499684 | 2.78° C | 47% | 1028.5 hPa | 0 mm | - | 0 W/m² | - |
| 1777499384 | 2.78° C | 46% | 1028.4 hPa | 0 mm | - | 0 W/m² | - |
| 1777499085 | 2.78° C | 45% | 1028.4 hPa | 0 mm | - | 0 W/m² | - |
| 1777498783 | 3.33° C | 45% | 1028.3 hPa | 0 mm | - | 0 W/m² | - |
| 1777498487 | 3.33° C | 45% | 1028.3 hPa | 0 mm | - | 0 W/m² | - |
| 1777498174 | 3.33° C | 45% | 1028.2 hPa | 0 mm | - | 0 W/m² | - |
| 1777497873 | 3.33° C | 44% | 1028.1 hPa | 0 mm | - | 0 W/m² | - |
* Rain latest hour (hover to see other rain measurements)
** Current wind speed in m/s (hover to see current wind gust speed)